This demonstration page uses our WeatherBlox Daily Observations layout. Learn more.

41.55636, -103.73856

Hourly Observations for March 23, 2019

Temp ( °F °C ) Dew Point ( °F °C ) Humidity (%) Winds ( mph kmh ) Pressure ( in mb ) Visibility ( mi km ) Precip ( " mm )
12:58 am 00:58 Mostly Cloudy with Light Rain 40 4.7 38 3.6 93 93 NNE 8 13 29.98 1015 4 6.43736 0 0
1:58 am 01:58 Cloudy with Rain/Snow 38 3.1 36 2 93 93 NW 15 24 29.99 1016 2.75 4.425685 0.13 3.302
2:58 am 02:58 Cloudy with Rain 37 2.6 35 1.7 94 94 WNW 12 19 29.99 1016 2.75 4.425685 0.09 2.286
3:58 am 03:58 Cloudy with Light Rain 37 2.5 35 1.5 93 93 NW 14 22 29.99 1016 8 12.87472 0.05 1.27
4:58 am 04:58 Mostly Cloudy with Light Showers 36 2.4 35 1.7 95 95 NW 14 22 29.98 1015 1.25 2.011675 0 0
5:58 am 05:58 Cloudy with Light Rain 36 2.3 35 1.5 95 95 NW 15 24 29.96 1015 4 6.43736 0.03 0.762
6:58 am 06:58 Cloudy with Rain 35 1.5 33 0.7 94 94 WNW 9 15 29.95 1014 2.5 4.02335 0.06 1.524
7:58 am 07:58 Cloudy with Light Rain/Snow 34 1.3 33 0.6 95 95 NW 8 13 29.97 1015 2.5 4.02335 0.07 1.778
8:58 am 08:58 Mostly Cloudy with Scattered Snow Showers 34 1.3 33 0.4 94 94 NNW 12 19 29.95 1014 4 6.43736 0.06 1.524
9:58 am 09:58 Cloudy with Light Snow 35 1.4 33 0.4 93 93 N 13 20 29.93 1014 5 8.0467 0.05 1.27
10:58 am 10:58 Cloudy with Light Snow 34 1.1 32 0.2 94 94 NNW 10 17 29.93 1014 3 4.82802 0.06 1.524
11:58 am 11:58 Mostly Cloudy with Scattered Snow Showers 34 1 32 0.2 94 94 NNW 13 20 29.93 1013 4 6.43736 0.05 1.27
12:58 pm 12:58 Windy with Snow Likely 34 0.9 32 0.1 94 94 NNW 20 31 29.93 1013 3 4.82802 0.05 1.27
1:58 pm 13:58 Mostly Cloudy with Scattered Snow Showers 33 0.6 31 -0.3 94 94 N 10 17 29.96 1015 3 4.82802 0.04 1.016
2:58 pm 14:58 Mostly Cloudy with Scattered Snow Showers 32 -0.1 31 -0.7 96 96 N 6 9 30 1016 5 8.0467 0.03 0.762
3:58 pm 15:58 Mostly Cloudy with Scattered Snow Showers 32 0 31 -0.6 96 96 N 5 7 30.01 1016 1 1.60934 0.05 1.27
4:58 pm 16:58 Mostly Cloudy with Light Showers 33 0.4 32 -0.2 96 96 Calm 30.02 1017 1 1.60934 0 0
5:58 pm 17:58 Mostly Cloudy with Patchy Fog 33 0.6 32 0.1 97 97 NW 7 11 30 1016 10 16.0934 0 0
6:58 pm 18:58 Cloudy 35 1.4 33 0.8 96 96 WNW 6 9 30.02 1017 10 16.0934 0 0
7:58 pm 19:58 Cloudy 35 1.8 34 1.2 96 96 NW 10 17 29.99 1016 10 16.0934 0 0
8:58 pm 20:58 Cloudy 36 2.3 35 1.5 95 95 NNW 13 20 29.98 1015 10 16.0934 0 0
9:58 pm 21:58 Cloudy 37 2.7 35 1.5 92 92 NNW 8 13 29.99 1016 10 16.0934 0 0
10:58 pm 22:58 Cloudy with Light Drizzle 38 3.1 35 1.6 90 90 NNW 8 13 30 1016 10 16.0934 0 0
11:58 pm 23:58 Mostly Cloudy 38 3.1 35 1.6 90 90 N 6 9 30 1016 10 16.0934 0 0

Powered by AerisWeather